Back to catalog

IGS 5A

AliveMilitarySSO
NORAD 36104·PAYLOAD·🇯🇵 Japan

Launched Nov 28, 2009 from Tanegashima Space Center

Loading…

Next Passes (next 24 hours)

TLE

StaleSource: Mike McCants

Epoch: Feb 17, 2026, 05:05 UTC

1 36104U 09066A   26048.21200796 0.00005000  00000-0  35402-3 0    07
2 36104  97.3865  48.8222 0002037 130.0450 229.9548 15.04891149    06

Track IGS 5A in real time with AllMySat

Download on the App Store